This demonstration page uses our WeatherBlox Daily Observations layout. Learn more.

41.86663, -103.66717

Hourly Observations for June 5, 2019

Temp ( °F °C ) Dew Point ( °F °C ) Humidity (%) Winds ( mph kmh ) Pressure ( in mb ) Visibility ( mi km ) Precip ( " mm )
12:53 am 00:53 Clear 53 11.7 51 10.6 93 93 NNW 6 9 29.92 1013 10 16.0934 0 0
1:53 am 01:53 Clear 51 10.6 50 10 96 96 WNW 7 11 29.93 1013 10 16.0934 0 0
2:53 am 02:53 Clear 50 10 49 9.4 96 96 NW 7 11 29.92 1013 10 16.0934 0 0
3:53 am 03:53 Clear 50 10 49 9.4 96 96 NW 7 11 29.96 1015 10 16.0934 0 0
4:53 am 04:53 Clear 49 9.4 48 8.9 97 97 NNW 5 7 29.97 1015 10 16.0934 0 0
5:53 am 05:53 Sunny 50 10 48 8.9 93 93 NNW 3 6 29.99 1016 10 16.0934 0 0
6:53 am 06:53 Sunny 53 11.7 52 11.1 96 96 Calm 29.98 1015 10 16.0934 0 0
7:53 am 07:53 Sunny 59 15 53 11.7 81 81 Calm 29.98 1015 10 16.0934 0 0
8:53 am 08:53 Sunny 65 18.3 56 13.3 73 73 WNW 5 7 29.97 1015 10 16.0934 0 0
9:53 am 09:53 Sunny 71 21.7 55 12.8 57 57 Calm 29.95 1014 10 16.0934 0 0
10:53 am 10:53 Sunny 74 23.3 54 12.2 50 50 Calm 29.94 1014 10 16.0934 0 0
11:53 am 11:53 undefined 77 25 55 12.8 47 47 undefined N/A 29.92 1013 N/A 0 0
1:53 pm 13:53 Sunny 82 27.8 59 15 46 46 VRB 3 6 29.89 1012 10 16.0934 0 0
2:53 pm 14:53 Sunny 82 27.8 58 14.4 44 44 Calm 29.88 1012 10 16.0934 0 0
3:53 pm 15:53 Sunny 82 27.8 58 14.4 44 44 SSE 6 9 29.88 1012 10 16.0934 0 0
4:53 pm 16:53 Sunny 82 27.8 58 14.4 44 44 SSE 10 17 29.86 1011 10 16.0934 0 0
5:53 pm 17:53 Sunny 81 27.2 57 13.9 44 44 SSE 7 11 29.86 1011 10 16.0934 0 0
6:53 pm 18:53 Sunny 76 24.4 55 12.8 48 48 SE 10 17 29.87 1012 10 16.0934 0 0
7:53 pm 19:53 Sunny 73 22.8 55 12.8 53 53 SE 7 11 29.87 1012 10 16.0934 0 0
8:53 pm 20:53 Clear 68 20 54 12.2 61 61 ESE 6 9 29.88 1012 10 16.0934 0 0
9:53 pm 21:53 Clear 65 18.3 53 11.7 66 66 ESE 6 9 29.89 1012 10 16.0934 0 0
10:53 pm 22:53 Clear 61 16.1 53 11.7 75 75 E 7 11 29.89 1012 10 16.0934 0 0
11:53 pm 23:53 Clear 61 16.1 52 11.1 72 72 NNE 3 6 29.89 1012 10 16.0934 0 0

Powered by AerisWeather